Regional Weather Roundup
Issued by NWS

Home | Current Version | Previous Version | Graphics & Text | Print | Product List | Glossary On
Versions: 1 2 3 4 5 6 7 8 9 10 11 12 13 14 15 16 17 18 19 20 21 22 23 24 25 26 27 28 29 30 31 32 33 34 35 36 37 38 39 40 41 42 43 44 45 46 47 48 49 50
000
ASUS43 KTOP 290108
RWRKS

WEATHER ROUNDUP FOR KANSAS
NATIONAL WEATHER SERVICE GOODLAND KS
800 PM CDT SUN AUG 28 2016

NOTE:  "FAIR" INDICATES FEW OR NO CLOUDS BELOW 12,000 FEET WITH NO
SIGNIFICANT WEATHER AND/OR OBSTRUCTIONS TO VISIBILITY.

KSZ001>006-013>018-027>032-041>047-290200-
NORTHWEST KANSAS

CITY           SKY/WX    TMP DP  RH WIND       PRES   REMARKS
GOODLAND       CLEAR     80  56  43 SE10      30.09R
HAYS           MOCLDY    79  63  57 S14       30.07R
HILL CITY      CLEAR     81  63  54 SE6       30.06R
RUSSELL        CLOUDY    80  68  66 S14G22    30.05R
$$

KSZ061>065-074>080-084>089-290200-
SOUTHWEST KANSAS

CITY           SKY/WX    TMP DP  RH WIND       PRES   REMARKS
DODGE CITY     CLOUDY    71  64  78 SE12      30.09R
ELKHART          N/A     76  60  57 SE24        N/A
GARDEN CITY    CLEAR     75  63  66 SE10      30.07R
GREAT BEND     CLOUDY    73  63  68 S9        30.06F
LIBERAL        MOCLDY    75  59  57 SE12      30.09S
PRATT          MOCLDY    68  64  87 SE6       30.08F
$$

KSZ066>073-081>083-090>101-290200-
SOUTHEAST KANSAS

CITY           SKY/WX    TMP DP  RH WIND       PRES   REMARKS
CHANUTE        PTCLDY    80  67  64 NE7       30.06S
COFFEYVILLE    MOCLDY    85  67  54 E6        30.04R
HUTCHINSON     LGT RAIN  73  68  84 SW5       30.07R
MEDICINE LODGE   N/A     70  66  87 SE13G21   30.06S
NEWTON         CLOUDY    76  68  76 S6        30.09R
PARSONS        PTCLDY    81  72  74 CALM      30.06R
WICHITA INTL   CLOUDY    77  67  71 CALM      30.07R
WICHITA JABRA  PTCLDY    77  71  82 S6        30.07R
WICHITA MCCONL MOCLDY    79  70  73 S6        30.07R
WINFIELD       CLOUDY    79  71  76 NE6       30.08R
$$

KSZ007>012-019>026-033>040-048>060-102>105-290200-
NORTHEAST KANSAS

CITY           SKY/WX    TMP DP  RH WIND       PRES   REMARKS
CONCORDIA      MOCLDY    81  69  67 S8        30.05R
EMPORIA        PTCLDY    74  68  81 SE6       30.06F
LAWRENCE       PTCLDY    79  74  84 E3        30.07R
MANHATTAN      PTCLDY    80  72  76 E7        30.06R
MARYSVILLE     CLOUDY    73  70  88 E12       30.08F
OLATHE IND     CLOUDY    80  69  69 SE14      30.09R
OLATHE EXE     CLOUDY    79  69  71 SE6       30.09R
SALINA         CLOUDY    82  71  69 SE8       30.05R
TOPEKA BILLARD MOCLDY    80  74  81 N3        30.08R
TOPEKA FORBES  CLOUDY    81  74  79 CALM      30.08R
$$



USA.gov is the U.S. government's official web portal to all federal, state and local government web resources and services.